Terug naar catalogus

SL-24 DEB

ActiefSSO
NORAD 37796·DEBRIS·🇷🇺 Russia

Gelanceerd Aug 17, 2011 vanaf Dombarovsky

Loading…

Volgende Passages (komende 24 uur)

TLE

VersSource: Space-Track

Epoch: Sep 14, 2026, 14:21 UTC

1 37796U 11044J   26257.59821201  .00000507  00000-0  10287-3 0  9995
2 37796  97.9665 220.2741 0011616 252.2362 167.7456 14.65167457803576

Volg SL-24 DEB in realtime met AllMySat

Download on the App Store